AirNav   Air Wisconsin Up To $57,000 Bonus
 
 1103 users online  

KHXF Hartford Municipal Airport
Hartford, Wisconsin, USA

GOING TO HARTFORD?


FAA INFORMATION EFFECTIVE 27 FEBRUARY 2020

Location

FAA Identifier: HXF
Lat/Long: 43-20-57.1438N 088-23-28.5950W
43-20.952397N 088-23.476583W
43.3492066,-88.3912764
(estimated)
Elevation: 1070 ft. / 326.1 m (surveyed)
Variation: 03W (2010)
From city: 2 miles NW of HARTFORD, WI
Time zone: UTC -6 (UTC -5 during Daylight Saving Time)
Zip code: 53027

Airport Operations

Airport use: Open to the public
Activation date: 06/1978
Control tower: no
ARTCC: CHICAGO CENTER
FSS: GREEN BAY FLIGHT SERVICE STATION
NOTAMs facility: GRB (NOTAM-D service available)
Attendance: UNATNDD
Pattern altitude: 1570 ft. MSL
TPA: 500 FT AGL ULTRALIGHTS.
Wind indicator: lighted
Segmented circle: yes
Lights: SS-SR
Beacon: white-green (lighted land airport)
Operates sunset to sunrise.

Airport Communications

CTAF/UNICOM: 123.0
MILWAUKEE APPROACH: 125.35 [0530-2330]
MILWAUKEE DEPARTURE: 125.35 [0530-2330]
WX AWOS-3 at ETB (12 nm E): 120.0 (262-334-6161)
WX AWOS-3 at UNU (14 nm W): 120.825 (920-386-5682)
WX AWOS-3 at RYV (18 nm SW): 119.975 (920-261-0734)
WX AWOS-3 at UES (20 nm S): 118.875 (262-521-5226)

Nearby radio navigation aids

VOR radial/distance  VOR name  Freq  Var
BJBr250/(12.4)WEST BEND VOR109.8001W
BAEr339/14.7BADGER VOR/DME116.4002E
FAHr225/34.5FALLS VOR/DME110.0002W
OSHr167/39.1OSHKOSH VORTAC116.7502E

 
NDB name  Hdg/Dist  Freq  Var  ID
JUNEAU110/14.434401WUNU ..- -. ..-
ROCK RIVER055/18.037101WRYV .-. -.-- ...-

Airport Services

Fuel available: 100LL MOGAS
24 HR FUEL AVBL WITH CREDIT CARD.
Parking: hangars and tiedowns
Airframe service: NONE
Powerplant service: NONE
Bottled oxygen: NONE
Bulk oxygen: NONE

Runway Information

Runway 11/29

Dimensions: 3000 x 75 ft. / 914 x 23 m
Surface: asphalt, in fair condition
Weight bearing capacity: 
Single wheel: 8.0
Runway edge lights: medium intensity
RUNWAY 11  RUNWAY 29
Latitude: 43-21.034567N43-20.863948N
Longitude: 088-23.799322W088-23.164345W
Elevation: 1050.5 ft.1045.6 ft.
Traffic pattern: leftleft
Runway heading: 113 magnetic, 110 true293 magnetic, 290 true
Markings: nonprecision, in fair conditionnonprecision, in fair condition
Runway end identifier lights: nono
Touchdown point: yes, no lightsyes, no lights
Obstructions: 9 ft. road, 335 ft. from runway, 260 ft. right of centerline, 15:1 slope to clear16 ft. trees, 425 ft. from runway, 200 ft. right of centerline, 14:1 slope to clear

Runway 18/36

Dimensions: 2250 x 196 ft. / 686 x 60 m
Surface: turf, in fair condition
Runway edge markings: THR MARKED WITH ORANGE & WHITE WOODEN A-FRAMES.
RUNWAY 18  RUNWAY 36
Latitude: 43-21.140833N43-20.772333N
Longitude: 088-23.444500W088-23.494667W
Elevation: 1070.0 ft.1035.0 ft.
Traffic pattern: leftleft
Runway heading: 189 magnetic, 186 true009 magnetic, 006 true
Runway end identifier lights: nono
Touchdown point: yes, no lightsyes, no lights
Obstructions: 21 ft. road, 580 ft. from runway, 180 ft. left of centerline, 27:1 slope to clear52 ft. trees, 1300 ft. from runway, 100 ft. left of centerline, 25:1 slope to clear

Airport Ownership and Management from official FAA records

Ownership: Publicly-owned
Owner: CITY OF HARTFORD
109 N. MAIN
HARTFORD, WI 53027
Phone 262-673-8263
Manager: DARRYL KRANZ
109 N MAIN
HARTFORD, WI 53027
Phone 262-673-8225
EMAIL ADDRESS: DKRANZ@CI.HARTFORD.WI.US (ALL LOWER CASE)

Airport Operational Statistics

Aircraft based on the field: 113
Single engine airplanes: 93
Multi engine airplanes: 1
Jet airplanes: 1
Helicopters: 3
Gliders airplanes: 7
Ultralights: 8
    
Aircraft operations: avg 42/day *
65% local general aviation
32% transient general aviation
3% air taxi
<1% military
* for 12-month period ending 09 September 2019

Additional Remarks

A23 RIGHT TFC PAT ULTRALIGHT & GLIDER ACFT.
A30A-18 SLIGHT DOWNHILL SLOPE.
A30A-36 +78 FT WATER TWR 3885 FT FM APCH END.
GLIDER & ULTRALIGHT ACTVTY ON ARPT.
FOR CD CTC CHICAGO ARTCC AT 630-906-8921.

Instrument Procedures

NOTE: All procedures below are presented as PDF files. If you need a reader for these files, you should download the free Adobe Reader.

NOT FOR NAVIGATION. Please procure official charts for flight.
FAA instrument procedures published for use from 27 February 2020 at 0901Z to 26 March 2020 at 0900Z.

 
STARs - Standard Terminal Arrivals
GOPAC TWO (RNAV)   download (194KB)
 
IAPs - Instrument Approach Procedures
RNAV (GPS) RWY 11   download (175KB)
RNAV (GPS) RWY 29   download (171KB)
 
Departure Procedures
ACCRA FOUR (RNAV)   download (137KB)
UECKR FIVE (RNAV)   download (153KB)
NOTE: Special Take-Off Minimums/Departure Procedures apply   download (201KB)

Other nearby airports with instrument procedures:

KETB - West Bend Municipal Airport (12 nm E)
KUNU - Dodge County Airport (14 nm W)
KRYV - Watertown Municipal Airport (18 nm SW)
KUES - Waukesha County Airport (20 nm S)
KMWC - Lawrence J Timmerman Airport (21 nm SE)
 
Loc | Ops | Rwys | IFR | FBO | Links
Com | Nav | Svcs | Stats | Notes

General Mitchell International Airport
 
Area around KHXF (Hartford Municipal Airport)
 
Road maps at: MapQuest Bing Google
 
Aerial photo
WARNING: Photo may not be current or correct
Aerial photo of KHXF (Hartford Municipal Airport)
Photo by Erica Larsen
Photo taken 29-Nov-2015
looking east.

Do you have a better or more recent aerial photo of Hartford Municipal Airport that you would like to share? If so, please send us your photo.

 
Sectional chart

 
Airport distance calculator
Flying to Hartford Municipal Airport? Find the distance to fly.

From to KHXF

Sunrise and sunset
Times for 27-Feb-2020
 Local
(UTC-6)
 Zulu
(UTC)
Morning civil twilight06:0512:05
Sunrise06:3412:34
Sunset17:3923:39
Evening civil twilight18:0700:07

Current date and time
Zulu (UTC)  28-Feb-2020 00:54:22
Local (UTC-6)  27-Feb-2020 18:54:22
 
METAR
KETB 
12nm E 
280035Z AUTO 31007KT 10SM CLR M07/M14 A3002 RMK AO2
KUNU 
14nm W 
280035Z AUTO 00000KT 10SM CLR M09/M14 A3004 RMK AO2 T10861140
KRYV 
18nm SW 
280035Z AUTO 35007KT 10SM SCT049 M06/M13 A3003 RMK AO2 T10641128
KMWC 
22nm SE 
272345Z 33010KT 10SM SKC M06/M15 A3002
KUES 
23nm SE 
272345Z 30005G15KT 10SM SKC M07/M14 A3001
TAF
KUES 
23nm SE 
271846Z 2719/2818 29011G20KT P6SM BKN035 FM272300 29010KT P6SM BKN040 FM280400 31007KT P6SM SCT040 FM280600 31006KT P6SM SCT250
NOTAMs
Click for the latest NOTAMs
NOTAMs are issued by the DoD/FAA and will open in a separate window not controlled by AirNav.

 

 
 

FBO, Fuel Providers, and Aircraft Ground Support

  
 Business Name 
 
 Contact 
 
 Services / Description 
 
Fuel Prices
 
Comments
  
City of Hartford (automated fuel pump) 262-673-8225
[web site]
[email]
Airport management, Aviation fuel

More info about City of Hartford (automated fuel pump)
independent
100LL Mogas
SS $4.40 $3.20 
 Updated 17-Feb-2020
 
   1 read write
SS=Self service
Update Fuel Prices
 

Would you like to see your business listed on this page?

 If your business provides an interesting product or service to pilots, flight crews, aircraft, or users of the Hartford Municipal Airport, you should consider listing it here.  To start the listing process, click on the button below
 
Add a business
 

Other Pages about Hartford Municipal Airport

ci.hartford.wi.us/...
Page from the Wisconsin airport directory (PDF)
 
Update a link
 
Copyright © AirNav, LLC. All rights reserved. Privacy Policy  Contact